Year,Month,Day,Hour,Minute,Value (Times are PST for temperature in C)
2023,05,15,00,00,17.30
2023,05,15,00,01,17.30
2023,05,15,00,02,17.30
2023,05,15,00,03,17.30
2023,05,15,00,04,17.40
2023,05,15,00,05,17.40
2023,05,15,00,06,17.40
2023,05,15,00,07,17.40
2023,05,15,00,08,17.40
2023,05,15,00,09,17.40
2023,05,15,00,10,17.40
2023,05,15,00,11,17.50
2023,05,15,00,12,17.50
2023,05,15,00,13,17.50
2023,05,15,00,14,17.50
2023,05,15,00,15,17.50
2023,05,15,00,16,17.50
2023,05,15,00,17,17.40
2023,05,15,00,18,17.40
2023,05,15,00,19,17.30
2023,05,15,00,20,17.20
2023,05,15,00,21,17.20
2023,05,15,00,22,17.20
2023,05,15,00,23,17.10
2023,05,15,00,24,17.10
2023,05,15,00,25,17.10
2023,05,15,00,26,17.10
2023,05,15,00,27,17.10
2023,05,15,00,28,17.10
2023,05,15,00,29,17.10
2023,05,15,00,30,17.10
2023,05,15,00,31,17.10
2023,05,15,00,32,17.20
2023,05,15,00,33,17.20
2023,05,15,00,34,17.20
2023,05,15,00,35,17.20
2023,05,15,00,36,17.20
2023,05,15,00,37,17.20
2023,05,15,00,38,17.20
2023,05,15,00,39,17.20
2023,05,15,00,40,17.30
2023,05,15,00,41,17.30
2023,05,15,00,42,17.30
2023,05,15,00,43,17.30
2023,05,15,00,44,17.30
2023,05,15,00,45,17.30
2023,05,15,00,46,17.30
2023,05,15,00,47,17.30
2023,05,15,00,48,17.30
2023,05,15,00,49,17.30
2023,05,15,00,50,17.40
2023,05,15,00,51,17.40
2023,05,15,00,52,17.40
2023,05,15,00,53,17.40
2023,05,15,00,54,17.30
2023,05,15,00,55,17.30
2023,05,15,00,56,17.30
2023,05,15,00,57,17.30
2023,05,15,00,58,17.30
2023,05,15,00,59,17.30
2023,05,15,01,00,17.30
2023,05,15,01,01,17.30
2023,05,15,01,02,17.30
2023,05,15,01,03,17.30
2023,05,15,01,04,17.30
2023,05,15,01,05,17.20
2023,05,15,01,06,17.10
2023,05,15,01,07,17.10
2023,05,15,01,08,17.00
2023,05,15,01,09,16.90
2023,05,15,01,10,16.80
2023,05,15,01,11,16.80
2023,05,15,01,12,16.70
2023,05,15,01,13,16.60
2023,05,15,01,14,16.50
2023,05,15,01,15,16.40
2023,05,15,01,16,16.30
2023,05,15,01,17,16.20
2023,05,15,01,18,16.10
2023,05,15,01,19,16.10
2023,05,15,01,20,16.10
2023,05,15,01,21,16.00
2023,05,15,01,22,16.00
2023,05,15,01,23,16.00
2023,05,15,01,24,15.90
2023,05,15,01,25,15.90
2023,05,15,01,26,15.90
2023,05,15,01,27,15.90
2023,05,15,01,28,15.80
2023,05,15,01,29,15.80
2023,05,15,01,30,15.80
2023,05,15,01,31,15.80
2023,05,15,01,32,15.80
2023,05,15,01,33,15.80
2023,05,15,01,34,15.80
2023,05,15,01,35,15.80
2023,05,15,01,36,15.80
2023,05,15,01,37,15.70
2023,05,15,01,38,15.70
2023,05,15,01,39,15.60
2023,05,15,01,40,15.60
2023,05,15,01,41,15.50
2023,05,15,01,42,15.50
2023,05,15,01,43,15.40
2023,05,15,01,44,15.40
2023,05,15,01,45,15.40
2023,05,15,01,46,15.40
2023,05,15,01,47,15.40
2023,05,15,01,48,15.30
2023,05,15,01,49,15.30
2023,05,15,01,50,15.30
2023,05,15,01,51,15.30
2023,05,15,01,52,15.30
2023,05,15,01,53,15.30
2023,05,15,01,54,15.40
2023,05,15,01,55,15.40
2023,05,15,01,56,15.40
2023,05,15,01,57,15.40
2023,05,15,01,58,15.40
2023,05,15,01,59,15.40
2023,05,15,02,00,15.40
2023,05,15,02,01,15.40
2023,05,15,02,02,15.50
2023,05,15,02,03,15.50
2023,05,15,02,04,15.50
2023,05,15,02,05,15.50
2023,05,15,02,06,15.50
2023,05,15,02,07,15.50
2023,05,15,02,08,15.60
2023,05,15,02,09,15.60
2023,05,15,02,10,15.60
2023,05,15,02,11,15.60
2023,05,15,02,12,15.60
2023,05,15,02,13,15.70
2023,05,15,02,14,15.70
2023,05,15,02,15,15.70
2023,05,15,02,16,15.70
2023,05,15,02,17,15.80
2023,05,15,02,18,15.80
2023,05,15,02,19,15.80
2023,05,15,02,20,15.80
2023,05,15,02,21,15.90
2023,05,15,02,22,15.90
2023,05,15,02,23,15.90
2023,05,15,02,24,15.80
2023,05,15,02,25,15.70
2023,05,15,02,26,15.60
2023,05,15,02,27,15.50
2023,05,15,02,28,15.40
2023,05,15,02,29,15.20
2023,05,15,02,30,15.10
2023,05,15,02,31,15.00
2023,05,15,02,32,14.80
2023,05,15,02,33,14.70
2023,05,15,02,34,14.60
2023,05,15,02,35,14.50
2023,05,15,02,36,14.40
2023,05,15,02,37,14.30
2023,05,15,02,38,14.30
2023,05,15,02,39,14.20
2023,05,15,02,40,14.10
2023,05,15,02,41,14.10
2023,05,15,02,42,14.00
2023,05,15,02,43,13.90
2023,05,15,02,44,13.90
2023,05,15,02,45,13.90
2023,05,15,02,46,13.90
2023,05,15,02,47,13.80
2023,05,15,02,48,13.80
2023,05,15,02,49,13.80
2023,05,15,02,50,13.80
2023,05,15,02,51,13.80
2023,05,15,02,52,13.80
2023,05,15,02,53,13.90
2023,05,15,02,54,13.90
2023,05,15,02,55,13.90
2023,05,15,02,56,13.90
2023,05,15,02,57,13.90
2023,05,15,02,58,14.00
2023,05,15,02,59,14.00
2023,05,15,03,00,14.00
2023,05,15,03,01,14.10
2023,05,15,03,02,14.10
2023,05,15,03,03,14.10
2023,05,15,03,04,14.10
2023,05,15,03,05,14.20
2023,05,15,03,06,14.20
2023,05,15,03,07,14.20
2023,05,15,03,08,14.20
2023,05,15,03,09,14.30
2023,05,15,03,10,14.30
2023,05,15,03,11,14.30
2023,05,15,03,12,14.40
2023,05,15,03,13,14.40
2023,05,15,03,14,14.50
2023,05,15,03,15,14.60
2023,05,15,03,16,14.60
2023,05,15,03,17,14.60
2023,05,15,03,18,14.70
2023,05,15,03,19,14.70
2023,05,15,03,20,14.70
2023,05,15,03,21,14.80
2023,05,15,03,22,14.80
2023,05,15,03,23,14.80
2023,05,15,03,24,14.80
2023,05,15,03,25,14.80
2023,05,15,03,26,14.80
2023,05,15,03,27,14.90
2023,05,15,03,28,14.90
2023,05,15,03,29,14.90
2023,05,15,03,30,15.00
2023,05,15,03,31,15.10
2023,05,15,03,32,15.10
2023,05,15,03,33,15.20
2023,05,15,03,34,15.20
2023,05,15,03,35,15.30
2023,05,15,03,36,15.40
2023,05,15,03,37,15.40
2023,05,15,03,38,15.50
2023,05,15,03,39,15.50
2023,05,15,03,40,15.60
2023,05,15,03,41,15.60
2023,05,15,03,42,15.60
2023,05,15,03,43,15.60
2023,05,15,03,44,15.60
2023,05,15,03,45,15.60
2023,05,15,03,46,15.60
2023,05,15,03,47,15.60
2023,05,15,03,48,15.50
2023,05,15,03,49,15.50
2023,05,15,03,50,15.40
2023,05,15,03,51,15.40
2023,05,15,03,52,15.40
2023,05,15,03,53,15.30
2023,05,15,03,54,15.30
2023,05,15,03,55,15.30
2023,05,15,03,56,15.30
2023,05,15,03,57,15.20
2023,05,15,03,58,15.20
2023,05,15,03,59,15.20
2023,05,15,04,00,15.10
2023,05,15,04,01,15.10
2023,05,15,04,02,15.10
2023,05,15,04,03,15.10
2023,05,15,04,04,15.00
2023,05,15,04,05,15.00
2023,05,15,04,06,14.90
2023,05,15,04,07,14.90
2023,05,15,04,08,14.90
2023,05,15,04,09,14.90
2023,05,15,04,10,14.90
2023,05,15,04,11,14.80
2023,05,15,04,12,14.80
2023,05,15,04,13,14.80
2023,05,15,04,14,14.80
2023,05,15,04,15,14.80
2023,05,15,04,16,14.80
2023,05,15,04,17,14.70
2023,05,15,04,18,14.70
2023,05,15,04,19,14.70
2023,05,15,04,20,14.70
2023,05,15,04,21,14.70
2023,05,15,04,22,14.70
2023,05,15,04,23,14.70
2023,05,15,04,24,14.70
2023,05,15,04,25,14.70
2023,05,15,04,26,14.70
2023,05,15,04,27,14.70
2023,05,15,04,28,14.70
2023,05,15,04,29,14.70
2023,05,15,04,30,14.70
2023,05,15,04,31,14.70
2023,05,15,04,32,14.70
2023,05,15,04,33,14.70
2023,05,15,04,34,14.70
2023,05,15,04,35,14.80
2023,05,15,04,36,14.80
2023,05,15,04,37,14.80
2023,05,15,04,38,14.80
2023,05,15,04,39,14.80
2023,05,15,04,40,14.80
2023,05,15,04,41,14.80
2023,05,15,04,42,14.90
2023,05,15,04,43,14.90
2023,05,15,04,44,14.90
2023,05,15,04,45,15.00
2023,05,15,04,46,15.00
2023,05,15,04,47,15.00
2023,05,15,04,48,15.10
2023,05,15,04,49,15.10
2023,05,15,04,50,15.00
2023,05,15,04,51,15.00
2023,05,15,04,52,15.10
2023,05,15,04,53,15.10
2023,05,15,04,54,15.10
2023,05,15,04,55,15.10
2023,05,15,04,56,15.10
2023,05,15,04,57,15.10
2023,05,15,04,58,15.00
2023,05,15,04,59,15.00
2023,05,15,05,00,15.00
2023,05,15,05,01,15.00
2023,05,15,05,02,15.00
2023,05,15,05,03,15.00
2023,05,15,05,04,15.00
2023,05,15,05,05,15.00
2023,05,15,05,06,15.00
2023,05,15,05,07,15.00
2023,05,15,05,08,15.00
2023,05,15,05,09,15.00
2023,05,15,05,10,15.10
2023,05,15,05,11,15.10
2023,05,15,05,12,15.10
2023,05,15,05,13,15.10
2023,05,15,05,14,15.10
2023,05,15,05,15,15.10
2023,05,15,05,16,15.10
2023,05,15,05,17,15.10
2023,05,15,05,18,15.10
2023,05,15,05,19,15.10
2023,05,15,05,20,15.10
2023,05,15,05,21,15.10
2023,05,15,05,22,15.10
2023,05,15,05,23,15.10
2023,05,15,05,24,15.10
2023,05,15,05,25,15.10
2023,05,15,05,26,15.10
2023,05,15,05,27,15.10
2023,05,15,05,28,15.10
2023,05,15,05,29,15.10
2023,05,15,05,30,15.10
2023,05,15,05,31,15.10
2023,05,15,05,32,15.10
2023,05,15,05,33,15.10
2023,05,15,05,34,15.10
2023,05,15,05,35,15.10
2023,05,15,05,36,15.20
2023,05,15,05,37,15.20
2023,05,15,05,38,15.20
2023,05,15,05,39,15.10
2023,05,15,05,40,15.00
2023,05,15,05,41,14.90
2023,05,15,05,42,14.80
2023,05,15,05,43,14.80
2023,05,15,05,44,14.70
2023,05,15,05,45,14.60
2023,05,15,05,46,14.50
2023,05,15,05,47,14.40
2023,05,15,05,48,14.40
2023,05,15,05,49,14.30
2023,05,15,05,50,14.30
2023,05,15,05,51,14.30
2023,05,15,05,52,14.30
2023,05,15,05,53,14.30
2023,05,15,05,54,14.30
2023,05,15,05,55,14.30
2023,05,15,05,56,14.30
2023,05,15,05,57,14.40
2023,05,15,05,58,14.40
2023,05,15,05,59,14.40
2023,05,15,06,00,14.40
2023,05,15,06,01,14.40
2023,05,15,06,02,14.40
2023,05,15,06,03,14.50
2023,05,15,06,04,14.50
2023,05,15,06,05,14.50
2023,05,15,06,06,14.60
2023,05,15,06,07,14.60
2023,05,15,06,08,14.70
2023,05,15,06,09,14.70
2023,05,15,06,10,14.70
2023,05,15,06,11,14.80
2023,05,15,06,12,14.80
2023,05,15,06,13,14.90
2023,05,15,06,14,14.90
2023,05,15,06,15,14.90
2023,05,15,06,16,15.00
2023,05,15,06,17,15.00
2023,05,15,06,18,15.00
2023,05,15,06,19,15.10
2023,05,15,06,20,15.10
2023,05,15,06,21,15.10
2023,05,15,06,22,15.10
2023,05,15,06,23,15.20
2023,05,15,06,24,15.20
2023,05,15,06,25,15.20
2023,05,15,06,26,15.30
2023,05,15,06,27,15.30
2023,05,15,06,28,15.30
2023,05,15,06,29,15.40
2023,05,15,06,30,15.40
2023,05,15,06,31,15.50
2023,05,15,06,32,15.50
2023,05,15,06,33,15.60
2023,05,15,06,34,15.60
2023,05,15,06,35,15.70
2023,05,15,06,36,15.70
2023,05,15,06,37,15.70
2023,05,15,06,38,15.70
2023,05,15,06,39,15.80
2023,05,15,06,40,15.80
2023,05,15,06,41,15.80
2023,05,15,06,42,15.90
2023,05,15,06,43,16.00
2023,05,15,06,44,16.10
2023,05,15,06,45,16.20
2023,05,15,06,46,16.30
2023,05,15,06,47,16.40
2023,05,15,06,48,16.50
2023,05,15,06,49,16.60
2023,05,15,06,50,16.70
2023,05,15,06,51,16.80
2023,05,15,06,52,16.90
2023,05,15,06,53,17.00
2023,05,15,06,54,17.10
2023,05,15,06,55,17.20
2023,05,15,06,56,17.20
2023,05,15,06,57,17.30
2023,05,15,06,58,17.40
2023,05,15,06,59,17.50
2023,05,15,07,00,17.60
2023,05,15,07,01,17.70
2023,05,15,07,02,17.80
2023,05,15,07,03,17.90
2023,05,15,07,04,18.00
2023,05,15,07,05,18.10
2023,05,15,07,06,18.20
2023,05,15,07,07,18.40
2023,05,15,07,08,18.50
2023,05,15,07,09,18.60
2023,05,15,07,10,18.70
2023,05,15,07,11,18.80
2023,05,15,07,12,18.90
2023,05,15,07,13,19.10
2023,05,15,07,14,19.20
2023,05,15,07,15,19.30
2023,05,15,07,16,19.30
2023,05,15,07,17,19.40
2023,05,15,07,18,19.30
2023,05,15,07,19,19.30
2023,05,15,07,20,19.20
2023,05,15,07,21,19.10
2023,05,15,07,22,19.00
2023,05,15,07,23,18.90
2023,05,15,07,24,18.80
2023,05,15,07,25,18.70
2023,05,15,07,26,18.70
2023,05,15,07,27,18.70
2023,05,15,07,28,18.70
2023,05,15,07,29,18.70
2023,05,15,07,30,18.70
2023,05,15,07,31,18.70
2023,05,15,07,32,18.70
2023,05,15,07,33,18.80
2023,05,15,07,34,18.80
2023,05,15,07,35,18.90
2023,05,15,07,36,19.00
2023,05,15,07,37,19.00
2023,05,15,07,38,19.10
2023,05,15,07,39,19.20
2023,05,15,07,40,19.30
2023,05,15,07,41,19.30
2023,05,15,07,42,19.50
2023,05,15,07,43,19.60
2023,05,15,07,44,19.70
2023,05,15,07,45,19.80
2023,05,15,07,46,20.00
2023,05,15,07,47,20.10
2023,05,15,07,48,20.30
2023,05,15,07,49,20.40
2023,05,15,07,50,20.60
2023,05,15,07,51,20.80
2023,05,15,07,52,20.90
2023,05,15,07,53,21.10
2023,05,15,07,54,21.30
2023,05,15,07,55,21.40
2023,05,15,07,56,21.50
2023,05,15,07,57,21.60
2023,05,15,07,58,21.60
2023,05,15,07,59,21.70
2023,05,15,08,00,21.70
2023,05,15,08,01,21.70
2023,05,15,08,02,21.70
2023,05,15,08,03,21.60
2023,05,15,08,04,21.60
2023,05,15,08,05,21.60
2023,05,15,08,06,21.60
2023,05,15,08,07,21.60
2023,05,15,08,08,21.60
2023,05,15,08,09,21.60
2023,05,15,08,10,21.60
2023,05,15,08,11,21.60
2023,05,15,08,12,21.70
2023,05,15,08,13,21.70
2023,05,15,08,14,21.70
2023,05,15,08,15,21.70
2023,05,15,08,16,21.70
2023,05,15,08,17,21.80
2023,05,15,08,18,21.80
2023,05,15,08,19,21.80
2023,05,15,08,20,21.90
2023,05,15,08,21,21.90
2023,05,15,08,22,21.90
2023,05,15,08,23,21.90
2023,05,15,08,24,21.80
2023,05,15,08,25,21.80
2023,05,15,08,26,21.60
2023,05,15,08,27,21.30
2023,05,15,08,28,21.20
2023,05,15,08,29,21.10
2023,05,15,08,30,21.10
2023,05,15,08,31,21.10
2023,05,15,08,32,21.10
2023,05,15,08,33,21.10
2023,05,15,08,34,21.10
2023,05,15,08,35,21.10
2023,05,15,08,36,21.10
2023,05,15,08,37,21.00
2023,05,15,08,38,21.00
2023,05,15,08,39,20.90
2023,05,15,08,40,20.80
2023,05,15,08,41,20.80
2023,05,15,08,42,20.70
2023,05,15,08,43,20.50
2023,05,15,08,44,20.30
2023,05,15,08,45,20.10
2023,05,15,08,46,20.00
2023,05,15,08,47,19.90
2023,05,15,08,48,19.90
2023,05,15,08,49,19.80
2023,05,15,08,50,19.80
2023,05,15,08,51,19.90
2023,05,15,08,52,19.90
2023,05,15,08,53,20.00
2023,05,15,08,54,20.10
2023,05,15,08,55,20.20
2023,05,15,08,56,20.30
2023,05,15,08,57,20.40
2023,05,15,08,58,20.50
2023,05,15,08,59,20.70
2023,05,15,09,00,20.80
2023,05,15,09,01,20.80
2023,05,15,09,02,20.90
2023,05,15,09,03,20.90
2023,05,15,09,04,20.90
2023,05,15,09,05,21.00
2023,05,15,09,06,21.00
2023,05,15,09,07,21.10
2023,05,15,09,08,21.20
2023,05,15,09,09,21.30
2023,05,15,09,10,21.30
2023,05,15,09,11,21.40
2023,05,15,09,12,21.40
2023,05,15,09,13,21.50
2023,05,15,09,14,21.50
2023,05,15,09,15,21.60
2023,05,15,09,16,21.60
2023,05,15,09,17,21.50
2023,05,15,09,18,21.50
2023,05,15,09,19,21.40
2023,05,15,09,20,21.40
2023,05,15,09,21,21.40
2023,05,15,09,22,21.30
2023,05,15,09,23,21.40
2023,05,15,09,24,21.40
2023,05,15,09,25,21.40
2023,05,15,09,26,21.50
2023,05,15,09,27,21.60
2023,05,15,09,28,21.70
2023,05,15,09,29,21.80
2023,05,15,09,30,21.80
2023,05,15,09,31,21.90
2023,05,15,09,32,21.90
2023,05,15,09,33,21.90
2023,05,15,09,34,21.90
2023,05,15,09,35,21.90
2023,05,15,09,36,21.90
2023,05,15,09,37,21.90
2023,05,15,09,38,21.90
2023,05,15,09,39,21.90
2023,05,15,09,40,21.80
2023,05,15,09,41,21.80
2023,05,15,09,42,21.80
2023,05,15,09,43,21.90
2023,05,15,09,44,21.90
2023,05,15,09,45,21.90
2023,05,15,09,46,22.00
2023,05,15,09,47,22.10
2023,05,15,09,48,22.20
2023,05,15,09,49,22.30
2023,05,15,09,50,22.30
2023,05,15,09,51,22.40
2023,05,15,09,52,22.40
2023,05,15,09,53,22.50
2023,05,15,09,54,22.50
2023,05,15,09,55,22.60
2023,05,15,09,56,22.60
2023,05,15,09,57,22.60
2023,05,15,09,58,22.60
2023,05,15,09,59,22.60
2023,05,15,10,00,22.60
2023,05,15,10,01,22.60
2023,05,15,10,02,22.70
2023,05,15,10,03,22.70
2023,05,15,10,04,22.70
2023,05,15,10,05,22.70
2023,05,15,10,06,22.70
2023,05,15,10,07,22.70
2023,05,15,10,08,22.70
2023,05,15,10,09,22.70
2023,05,15,10,10,22.70
2023,05,15,10,11,22.70
2023,05,15,10,12,22.70
2023,05,15,10,13,22.70
2023,05,15,10,14,22.80
2023,05,15,10,15,22.80
2023,05,15,10,16,22.80
2023,05,15,10,17,22.90
2023,05,15,10,18,23.00
2023,05,15,10,19,23.00
2023,05,15,10,20,23.10
2023,05,15,10,21,23.20
2023,05,15,10,22,23.20
2023,05,15,10,23,23.10
2023,05,15,10,24,23.10
2023,05,15,10,25,23.10
2023,05,15,10,26,23.10
2023,05,15,10,27,23.10
2023,05,15,10,28,23.10
2023,05,15,10,29,23.10
2023,05,15,10,30,23.20
2023,05,15,10,31,23.20
2023,05,15,10,32,23.20
2023,05,15,10,33,23.20
2023,05,15,10,34,23.20
2023,05,15,10,35,23.20
2023,05,15,10,36,23.20
2023,05,15,10,37,23.20
2023,05,15,10,38,23.20
2023,05,15,10,39,23.20
2023,05,15,10,40,23.20
2023,05,15,10,41,23.20
2023,05,15,10,42,23.20
2023,05,15,10,43,23.30
2023,05,15,10,44,23.30
2023,05,15,10,45,23.40
2023,05,15,10,46,23.50
2023,05,15,10,47,23.60
2023,05,15,10,48,23.60
2023,05,15,10,49,23.60
2023,05,15,10,50,23.60
2023,05,15,10,51,23.70
2023,05,15,10,52,23.70
2023,05,15,10,53,23.80
2023,05,15,10,54,23.90
2023,05,15,10,55,23.90
2023,05,15,10,56,23.90
2023,05,15,10,57,23.90
2023,05,15,10,58,23.80
2023,05,15,10,59,23.70
2023,05,15,11,00,23.60
2023,05,15,11,01,23.60
2023,05,15,11,02,23.50
2023,05,15,11,03,23.50
2023,05,15,11,04,23.40
2023,05,15,11,05,23.40
2023,05,15,11,06,23.40
2023,05,15,11,07,23.50
2023,05,15,11,08,23.50
2023,05,15,11,09,23.60
2023,05,15,11,10,23.70
2023,05,15,11,11,23.70
2023,05,15,11,12,23.80
2023,05,15,11,13,23.90
2023,05,15,11,14,24.00
2023,05,15,11,15,24.10
2023,05,15,11,16,24.20
2023,05,15,11,17,24.20
2023,05,15,11,18,24.20
2023,05,15,11,19,24.20
2023,05,15,11,20,24.20
2023,05,15,11,21,24.10
2023,05,15,11,22,24.10
2023,05,15,11,23,24.00
2023,05,15,11,24,24.00
2023,05,15,11,25,23.90
2023,05,15,11,26,23.90
2023,05,15,11,27,23.90
2023,05,15,11,28,23.80
2023,05,15,11,29,23.80
2023,05,15,11,30,23.80
2023,05,15,11,31,23.70
2023,05,15,11,32,23.70
2023,05,15,11,33,23.70
2023,05,15,11,34,23.70
2023,05,15,11,35,23.70
2023,05,15,11,36,23.80
2023,05,15,11,37,23.80
2023,05,15,11,38,23.80
2023,05,15,11,39,23.80
2023,05,15,11,40,23.90
2023,05,15,11,41,23.90
2023,05,15,11,42,23.90
2023,05,15,11,43,24.00
2023,05,15,11,44,24.00
2023,05,15,11,45,24.10
2023,05,15,11,46,24.20
2023,05,15,11,47,24.20
2023,05,15,11,48,24.30
2023,05,15,11,49,24.40
2023,05,15,11,50,24.40
2023,05,15,11,51,24.50
2023,05,15,11,52,24.50
2023,05,15,11,53,24.50
2023,05,15,11,54,24.60
2023,05,15,11,55,24.60
2023,05,15,11,56,24.70
2023,05,15,11,57,24.70
2023,05,15,11,58,24.70
2023,05,15,11,59,24.70
2023,05,15,12,00,24.70
2023,05,15,12,01,24.80
2023,05,15,12,02,24.80
2023,05,15,12,03,24.90
2023,05,15,12,04,24.90
2023,05,15,12,05,25.00
2023,05,15,12,06,25.10
2023,05,15,12,07,25.10
2023,05,15,12,08,25.10
2023,05,15,12,09,25.20
2023,05,15,12,10,25.30
2023,05,15,12,11,25.30
2023,05,15,12,12,25.30
2023,05,15,12,13,25.30
2023,05,15,12,14,25.40
2023,05,15,12,15,25.40
2023,05,15,12,16,25.50
2023,05,15,12,17,25.50
2023,05,15,12,18,25.60
2023,05,15,12,19,25.60
2023,05,15,12,20,25.60
2023,05,15,12,21,25.60
2023,05,15,12,22,25.50
2023,05,15,12,23,25.40
2023,05,15,12,24,25.30
2023,05,15,12,25,25.40
2023,05,15,12,26,25.30
2023,05,15,12,27,25.30
2023,05,15,12,28,25.30
2023,05,15,12,29,25.30
2023,05,15,12,30,25.30
2023,05,15,12,31,25.30
2023,05,15,12,32,25.30
2023,05,15,12,33,25.30
2023,05,15,12,34,25.40
2023,05,15,12,35,25.40
2023,05,15,12,36,25.30
2023,05,15,12,37,25.30
2023,05,15,12,38,25.40
2023,05,15,12,39,25.40
2023,05,15,12,40,25.50
2023,05,15,12,41,25.60
2023,05,15,12,42,25.70
2023,05,15,12,43,25.70
2023,05,15,12,44,25.80
2023,05,15,12,45,25.80
2023,05,15,12,46,25.90
2023,05,15,12,47,25.90
2023,05,15,12,48,25.90
2023,05,15,12,49,25.90
2023,05,15,12,50,25.80
2023,05,15,12,51,25.80
2023,05,15,12,52,25.80
2023,05,15,12,53,25.80
2023,05,15,12,54,25.80
2023,05,15,12,55,25.80
2023,05,15,12,56,25.80
2023,05,15,12,57,25.80
2023,05,15,12,58,25.90
2023,05,15,12,59,26.00
2023,05,15,13,00,26.10
2023,05,15,13,01,26.20
2023,05,15,13,02,26.40
2023,05,15,13,03,26.50
2023,05,15,13,04,26.60
2023,05,15,13,05,26.70
2023,05,15,13,06,26.80
2023,05,15,13,07,26.90
2023,05,15,13,08,26.90
2023,05,15,13,09,26.90
2023,05,15,13,10,27.00
2023,05,15,13,11,27.10
2023,05,15,13,12,27.20
2023,05,15,13,13,27.30
2023,05,15,13,14,27.30
2023,05,15,13,15,27.40
2023,05,15,13,16,27.40
2023,05,15,13,17,27.40
2023,05,15,13,18,27.40
2023,05,15,13,19,27.50
2023,05,15,13,20,27.50
2023,05,15,13,21,27.60
2023,05,15,13,22,27.60
2023,05,15,13,23,27.70
2023,05,15,13,24,27.70
2023,05,15,13,25,27.80
2023,05,15,13,26,27.80
2023,05,15,13,27,27.70
2023,05,15,13,28,27.70
2023,05,15,13,29,27.70
2023,05,15,13,30,27.70
2023,05,15,13,31,27.70
2023,05,15,13,32,27.70
2023,05,15,13,33,27.70
2023,05,15,13,34,27.60
2023,05,15,13,35,27.60
2023,05,15,13,36,27.50
2023,05,15,13,37,27.30
2023,05,15,13,38,27.20
2023,05,15,13,39,27.10
2023,05,15,13,40,27.00
2023,05,15,13,41,26.90
2023,05,15,13,42,26.90
2023,05,15,13,43,26.90
2023,05,15,13,44,26.90
2023,05,15,13,45,27.00
2023,05,15,13,46,27.00
2023,05,15,13,47,27.10
2023,05,15,13,48,27.10
2023,05,15,13,49,27.10
2023,05,15,13,50,27.10
2023,05,15,13,51,27.10
2023,05,15,13,52,27.20
2023,05,15,13,53,27.20
2023,05,15,13,54,27.30
2023,05,15,13,55,27.40
2023,05,15,13,56,27.50
2023,05,15,13,57,27.70
2023,05,15,13,58,27.80
2023,05,15,13,59,27.80
2023,05,15,14,00,27.80
2023,05,15,14,01,27.80
2023,05,15,14,02,27.90
2023,05,15,14,03,27.90
2023,05,15,14,04,27.90
2023,05,15,14,05,27.80
2023,05,15,14,06,27.80
2023,05,15,14,07,27.70
2023,05,15,14,08,27.70
2023,05,15,14,09,27.70
2023,05,15,14,10,27.70
2023,05,15,14,11,27.80
2023,05,15,14,12,27.80
2023,05,15,14,13,27.90
2023,05,15,14,14,27.90
2023,05,15,14,15,28.00
2023,05,15,14,16,28.00
2023,05,15,14,17,28.00
2023,05,15,14,18,28.10
2023,05,15,14,19,28.10
2023,05,15,14,20,28.10
2023,05,15,14,21,28.10
2023,05,15,14,22,28.10
2023,05,15,14,23,28.20
2023,05,15,14,24,28.20
2023,05,15,14,25,28.20
2023,05,15,14,26,28.20
2023,05,15,14,27,28.20
2023,05,15,14,28,28.20
2023,05,15,14,29,28.20
2023,05,15,14,30,28.10
2023,05,15,14,31,28.00
2023,05,15,14,32,28.00
2023,05,15,14,33,27.90
2023,05,15,14,34,27.90
2023,05,15,14,35,27.90
2023,05,15,14,36,28.00
2023,05,15,14,37,28.10
2023,05,15,14,38,28.10
2023,05,15,14,39,28.10
2023,05,15,14,40,28.10
2023,05,15,14,41,28.20
2023,05,15,14,42,28.20
2023,05,15,14,43,28.20
2023,05,15,14,44,28.20
2023,05,15,14,45,28.20
2023,05,15,14,46,28.20
2023,05,15,14,47,28.20
2023,05,15,14,48,28.30
2023,05,15,14,49,28.30
2023,05,15,14,50,28.30
2023,05,15,14,51,28.30
2023,05,15,14,52,28.40
2023,05,15,14,53,28.40
2023,05,15,14,54,28.50
2023,05,15,14,55,28.50
2023,05,15,14,56,28.60
2023,05,15,14,57,28.60
2023,05,15,14,58,28.60
2023,05,15,14,59,28.50
2023,05,15,15,00,28.50
2023,05,15,15,01,28.60
2023,05,15,15,02,28.50
2023,05,15,15,03,28.30
2023,05,15,15,04,28.20
2023,05,15,15,05,28.10
2023,05,15,15,06,28.10
2023,05,15,15,07,28.10
2023,05,15,15,08,28.20
2023,05,15,15,09,28.20
2023,05,15,15,10,28.20
2023,05,15,15,11,28.20
2023,05,15,15,12,28.20
2023,05,15,15,13,28.20
2023,05,15,15,14,28.10
2023,05,15,15,15,28.10
2023,05,15,15,16,28.10
2023,05,15,15,17,28.10
2023,05,15,15,18,28.20
2023,05,15,15,19,28.30
2023,05,15,15,20,28.40
2023,05,15,15,21,28.40
2023,05,15,15,22,28.40
2023,05,15,15,23,28.40
2023,05,15,15,24,28.30
2023,05,15,15,25,28.30
2023,05,15,15,26,28.30
2023,05,15,15,27,28.30
2023,05,15,15,28,28.40
2023,05,15,15,29,28.40
2023,05,15,15,30,28.40
2023,05,15,15,31,28.50
2023,05,15,15,32,28.50
2023,05,15,15,33,28.50
2023,05,15,15,34,28.30
2023,05,15,15,35,28.20
2023,05,15,15,36,28.20
2023,05,15,15,37,28.20
2023,05,15,15,38,28.20
2023,05,15,15,39,28.20
2023,05,15,15,40,28.20
2023,05,15,15,41,28.20
2023,05,15,15,42,28.20
2023,05,15,15,43,28.10
2023,05,15,15,44,28.10
2023,05,15,15,45,28.00
2023,05,15,15,46,27.90
2023,05,15,15,47,27.90
2023,05,15,15,48,27.90
2023,05,15,15,49,28.00
2023,05,15,15,50,28.10
2023,05,15,15,51,28.20
2023,05,15,15,52,28.30
2023,05,15,15,53,28.30
2023,05,15,15,54,28.20
2023,05,15,15,55,28.20
2023,05,15,15,56,28.20
2023,05,15,15,57,28.30
2023,05,15,15,58,28.30
2023,05,15,15,59,28.40
2023,05,15,16,00,28.40
2023,05,15,16,01,28.40
2023,05,15,16,02,28.50
2023,05,15,16,03,28.60
2023,05,15,16,04,28.60
2023,05,15,16,05,28.60
2023,05,15,16,06,28.70
2023,05,15,16,07,28.80
2023,05,15,16,08,28.80
2023,05,15,16,09,28.90
2023,05,15,16,10,28.90
2023,05,15,16,11,29.00
2023,05,15,16,12,29.00
2023,05,15,16,13,29.10
2023,05,15,16,14,29.20
2023,05,15,16,15,29.40
2023,05,15,16,16,29.50
2023,05,15,16,17,29.60
2023,05,15,16,18,29.60
2023,05,15,16,19,29.60
2023,05,15,16,20,29.60
2023,05,15,16,21,29.60
2023,05,15,16,22,29.60
2023,05,15,16,23,29.60
2023,05,15,16,24,29.60
2023,05,15,16,25,29.70
2023,05,15,16,26,29.70
2023,05,15,16,27,29.70
2023,05,15,16,28,29.70
2023,05,15,16,29,29.70
2023,05,15,16,30,29.70
2023,05,15,16,31,29.70
2023,05,15,16,32,29.80
2023,05,15,16,33,29.80
2023,05,15,16,34,29.80
2023,05,15,16,35,29.80
2023,05,15,16,36,29.80
2023,05,15,16,37,29.70
2023,05,15,16,38,29.60
2023,05,15,16,39,29.60
2023,05,15,16,40,29.60
2023,05,15,16,41,29.60
2023,05,15,16,42,29.70
2023,05,15,16,43,29.70
2023,05,15,16,44,29.80
2023,05,15,16,45,29.80
2023,05,15,16,46,29.90
2023,05,15,16,47,29.90
2023,05,15,16,48,29.90
2023,05,15,16,49,30.00
2023,05,15,16,50,30.00
2023,05,15,16,51,30.00
2023,05,15,16,52,30.00
2023,05,15,16,53,30.10
2023,05,15,16,54,30.10
2023,05,15,16,55,30.10
2023,05,15,16,56,30.10
2023,05,15,16,57,30.10
2023,05,15,16,58,30.20
2023,05,15,16,59,30.20
2023,05,15,17,00,30.30
2023,05,15,17,01,30.30
2023,05,15,17,02,30.40
2023,05,15,17,03,30.50
2023,05,15,17,04,30.50
2023,05,15,17,05,30.60
2023,05,15,17,06,30.70
2023,05,15,17,07,30.80
2023,05,15,17,08,30.80
2023,05,15,17,09,30.90
2023,05,15,17,10,31.00
2023,05,15,17,11,31.10
2023,05,15,17,12,31.20
2023,05,15,17,13,31.30
2023,05,15,17,14,31.40
2023,05,15,17,15,31.30
2023,05,15,17,16,31.20
2023,05,15,17,17,30.90
2023,05,15,17,18,30.70
2023,05,15,17,19,30.40